Location: Dennehotso
(36.8461°N, 109.8435°W)
Time: 20:37:50
(UTC+00:00)

N. Korean satellite - Pass Details

Date: 02 March 2021
Orbit: 452 x 499 km, 97.2° (Epoch: 15 April)

Event Time Altitude Azimuth Distance (km) Brightness Sun altitude
Rises 12:11:36 0° 22° (NNE) 2,523 10.6 -20.1°
Reaches altitude 10° 12:13:48 10° 33° (NNE) 1,649 9.8 -19.7°
Maximum altitude 12:17:01 32° 98° (E) 847 8.4 -19.1°
Drops below altitude 10° 12:20:15 10° 163° (SSE) 1,662 9.4 -18.4°
Sets 12:22:28 0° 173° (S) 2,545 10.3 -18.0°
